ONEWEB-0036, 45144

Orbit data source: Space-Track

ONEWEB-0036, 45144 is a payload satellite owned by One Web (UK) in LEO that was launched on Thu, 06 Feb 2020 UTC via a SOYUZ-2-1B launch vehicle from the Tyuratam Missile And Space Complex (TTMTR). Payload-class satellites include a variety of spacecraft equipped with specific instruments for various scientific and technological missions. These include communications satellites like Starlink; space stations such as the ISS; scientific satellites like the Hubble; Earth observation satellites from companies like Planet Labs, Umbra, and HawkEye 360; GPS; miniature CubeSats for education and research; and military/defense satellites.

Loading next visibility...
Identifier
45144, 2020-008P
Orbit
LEO
Country
Flag of UKUK
Related business
Manufacturer
One Web
Mission
Operational Commercial Communications
Bus & Motor
ARROW, Unknown motor
Mass
148 kg wet, ~140 kg dry
Launch date (UTC)
2020-02-06 (6 years ago)
Launch vehicle
SOYUZ-2-1B
Launch site
Tyuratam Missile And Space Complex (TTMTR)
Object type
Payload
Rocket body
Debris
Shape & HBR
Trap Box + 2 Pan, 6.7 m
Radar Cross Section
3.464 m², Large (>1 m²)

Expand to show TLE details & history
Last TLE update: 11 hours ago

TLE from 11 hours ago
0 ONEWEB-0036
1 45144U 20008P   26036.50962491  .00000533  00000-0  14891-2 0  9997
2 45144  87.8761  62.4845 0001984  85.4885 274.6469 13.10374480291120
Epoch: 2026-02-05T12:13Z
TLE epoch observation values (Epoch: 2026-02-05T12:13:51.592Z)
Latitude
-0°
Longitude
103.35871°
Altitude
1,224.476 km
Speed
7.242 km/s
True Right ascension
04h 09m 56s
True Declination
0° 00' 00"
Sunlit
Object was in daylight at epoch
Visualization orbit readout
Latitude
Unknown
Longitude
Unknown
Altitude
Unknown
Speed
Unknown
Apparent Right ascension
Unknown
Apparent Declination
Unknown
Sunlit
N/A
Visualization observer readout
Local Sidereal Time
01:31:51
Azimuth
Unknown
Elevation
Unknown
Doppler factor
Unknown
Orbital elements
Apogee altitude
1,220.338 km
Perigee altitude
1,217.323 km
Semi-major axis
7,596.968 km
Eccentricity
0.0002
Inclination
87.8761°
RAAN
62.4845°
Arg. of periapsis
85.4885°
True anomaly
274.62424°
Mean anomaly
274.6469°
Eccentric anomaly
274.63557°
Mean motion
3.2778 °/min
Orbital period
109.83 mins
BSTAR
0.0014891
Loading maneuver chart data...
Computing Atmospheric mass density...
Loading historical data...
Loading historical data...
Loading historical data...
Loading historical data...
Loading historical data...
Loading historical data...
Loading historical data...

Documentation

Showing up to 5 results
|